Location: Bégole
(43.1574°N, 0.3291°E)
Time: 07:25:00
(UTC+00:00)

BlueWalker 3 - Pass Details

Date: 28 January 2023
Orbit: 497 x 515 km, 53.2° (Epoch: 26 March)

Event Time Altitude Azimuth Distance (km) Brightness Sun altitude
Rises 18:44:27 0° 259° (WSW) 2,591 7.3 -18.2°
Reaches altitude 10° 18:46:46 10° 268° (W) 1,713 5.9 -18.6°
Maximum altitude 18:50:20 35° 335° (NNW) 838 3.1 -19.2°
Enters shadow 18:51:37 27° 15° (NNE) 996 3.2 -19.4°
